TimeCDT,TemperatureF,Dew PointF,Humidity,Sea Level PressureIn,VisibilityMPH,Wind Direction,Wind SpeedMPH,Gust SpeedMPH,PrecipitationIn,Events,Conditions,WindDirDegrees,DateUTC
12:53 AM,79.0,68.0,69,29.91,10.0,ESE,9.2,-,N/A,,Clear,110,2013-07-08 05:53:00
1:53 AM,78.1,70.0,76,29.88,10.0,ESE,9.2,-,N/A,,Clear,120,2013-07-08 06:53:00
2:53 AM,78.1,71.1,79,29.89,8.0,SSE,8.1,-,N/A,,Clear,150,2013-07-08 07:53:00
3:53 AM,77.0,71.1,82,29.88,8.0,SSE,5.8,-,N/A,,Clear,150,2013-07-08 08:53:00
4:53 AM,73.0,70.0,90,29.90,5.0,NNE,4.6,-,N/A,,Clear,30,2013-07-08 09:53:00
5:53 AM,71.1,69.1,93,29.91,5.0,SE,3.5,-,N/A,,Clear,140,2013-07-08 10:53:00
6:53 AM,73.0,69.1,87,29.92,6.0,North,8.1,-,N/A,,Clear,350,2013-07-08 11:53:00
7:53 AM,72.0,70.0,93,29.94,3.0,NNE,5.8,-,N/A,,Clear,20,2013-07-08 12:53:00
8:00 AM,71.6,69.8,94,29.99,2.5,North,5.8,-,N/A,,Partly Cloudy,10,2013-07-08 13:00:00
8:42 AM,73.4,69.8,88,29.99,3.0,SE,3.5,-,N/A,,Mostly Cloudy,130,2013-07-08 13:42:00
8:53 AM,73.0,71.1,93,29.95,3.0,South,6.9,-,N/A,,Scattered Clouds,180,2013-07-08 13:53:00
9:53 AM,78.1,70.0,76,29.95,6.0,WNW,3.5,-,N/A,,Haze,300,2013-07-08 14:53:00
10:53 AM,82.9,70.0,65,29.94,8.0,Calm,Calm,-,N/A,,Clear,0,2013-07-08 15:53:00
11:53 AM,90.0,64.9,43,29.93,10.0,South,8.1,-,N/A,,Clear,180,2013-07-08 16:53:00
12:53 PM,89.1,64.9,45,29.94,10.0,Calm,Calm,-,N/A,,Clear,0,2013-07-08 17:53:00
1:53 PM,91.9,64.9,41,29.92,10.0,Variable,6.9,-,N/A,,Clear,0,2013-07-08 18:53:00
2:53 PM,91.0,66.0,44,29.91,10.0,Variable,3.5,-,N/A,,Clear,0,2013-07-08 19:53:00
3:53 PM,93.9,64.9,38,29.90,10.0,SE,9.2,-,N/A,,Clear,130,2013-07-08 20:53:00
4:53 PM,93.9,66.9,41,29.89,10.0,East,9.2,-,N/A,,Clear,100,2013-07-08 21:53:00
5:53 PM,95.0,70.0,44,29.88,10.0,East,10.4,-,N/A,,Clear,100,2013-07-08 22:53:00
6:53 PM,93.0,68.0,44,29.85,10.0,East,11.5,-,N/A,,Clear,100,2013-07-08 23:53:00
7:53 PM,90.0,71.1,54,29.84,10.0,East,11.5,-,N/A,,Clear,100,2013-07-09 00:53:00
8:53 PM,86.0,73.0,65,29.86,10.0,East,13.8,-,N/A,,Partly Cloudy,100,2013-07-09 01:53:00
9:53 PM,82.0,73.0,74,29.87,10.0,ESE,9.2,-,N/A,,Clear,120,2013-07-09 02:53:00
10:53 PM,81.0,72.0,74,29.86,10.0,SSE,6.9,-,N/A,,Scattered Clouds,160,2013-07-09 03:53:00
11:53 PM,82.9,63.0,51,29.85,10.0,South,11.5,-,0.00,,Clear,190,2013-07-09 04:53:00